www.pogodaiklimat.ru

Погода и климат >> Архив погоды >> Китай >> Nanyue


ПОГОДА в Nanyue

  • Прогноз погоды в Nanyue
  • Монитор погоды в Nanyue
  • Климат города

АРХИВ ПОГОДЫ в Nanyue

Время (UTC), дата Ветер
(напр.,м/с)
 
Видим.   Явления Облачность Т
(С)
Тd
(С)
f
(%)
Тe
(С)
Тes
(С)
Комфортность P
(гПа)
Po
(гПа)
Тmin
(С)
Tmax
(С)
R
(мм)
R24
(мм)
S
(см)
18 8.12 З 4 9000 м ?/? +0.5 -6.6 59 -4 -4 1027.5 1028.0 +4.9
21 8.12 СЗ 4 10 км ?/? +0.2 -8.0 54 -5 -5 1026.8 1027.0
00 9.12 С 3 23 км ясно +1.7 -16.7 24 -1 -1 1026.9 1027.0
03 9.12 ЮЗ 2 23 км ясно +6.5 -9.4 31 +5 +12 1024.5 1025.0
06 9.12 З 2 4500 м мгла ясно +8.1 -2.2 48 +7 +14 1019.7 1020.0 -1.6
09 9.12 З 6 8000 м ясно +6.0 -7.9 36 +2 +2 1018.7 1019.0
12 9.12 З 7 30 км ясно +5.7 -14.4 22 +2 +2 1019.6 1020.0
18 9.12 С 3 19 км ?/? +5.8 -7.1 39 +3 +3 1020.9 1021.0 +8.7
21 9.12 СВ 4 18 км ?/? +5.2 -7.6 39 +2 +2 1021.8 1022.0
00 10.12 С 4 12 км ясно +5.5 -7.0 40 +2 +3 1024.0 1024.0
03 10.12 СВ 6 8000 м ясно +5.8 -4.4 48 +2 +5 1024.8 1025.0
06 10.12 С 2 7000 м ясно +6.3 -2.3 54 +4 +12 1023.2 1023.0 +4.6
09 10.12 С 3 7000 м мгла ясно +4.5 -1.5 65 +1 +2 1024.4 1024.0
12 10.12 С 7 9000 м ясно +2.6 -3.5 64 -3 -3 1026.1 1026.0
18 10.12 СВ 3 15 км ?/? +3.7 -5.2 52 +1 +1 1025.4 879.3 +7.2
21 10.12 СВ 2 14 км ?/? +3.6 -3.7 59 +1 +1 1025.2 1025.0
00 11.12 В 3 14 км ясно +4.1 -3.9 56 +1 +1 1026.6 1051.0
03 11.12 В 3 9000 м ясно +6.1 -3.0 52 +3 +10 1026.8 1027.0
06 11.12 СВ 5 н/о мгла ясно +5.4 -6.5 42 +2 +5 1023.2 1023.0 +1.7
09 11.12 В 3 13 км 8/8
[]
+4.9 -3.9 53 +2 +2 1023.0 1023.0
12 11.12 В 7 14 км ясно +4.4 -4.6 52 -1 -1 1023.5 1024.0
18 11.12 В 6 19 км ?/? +3.8 -5.7 50 -1 -1 1024.2 1024.0 +7.1
21 11.12 В 6 22 км ?/? +3.6 -6.1 49 -1 -1 1023.8 1024.0
00 12.12 В 4 8000 м 10/10
[]
+4.3 -6.6 45 +1 +1 1025.3 1025.0
03 12.12 В 2 21 км 10/10
[]
+7.2 -10.5 27 +6 +6 1025.4 1025.0
06 12.12 В 3 9000 м 10/10
[]
+6.9 -10.3 28 +5 +5 1022.4 1024.2 +2.7
09 12.12 В 5 14 км 10/10
[]
+4.2 -14.6 24 0 0 1022.6 1023.0
12 12.12 В 5 17 км 10/10
[]
+4.3 -3.5 57 -0 -0 1022.3 1022.0
18 12.12 С 3 11 км ?/? +1.2 -4.2 67 -3 -3 1022.7 1023.0 +7.8
21 12.12 В 3 3400 м дымка ?/? -0.2 -1.9 88 -5 -5 1023.3 1023.0
00 13.12 В 4 5000 м дымка 10/10 600 м
[]
+0.8 -0.1 94 -5 -5 1024.2 1024.0 0.7
03 13.12 ЮВ 5 <100 м слабый дождь {туман} ?/? +0.8 +0.7 99 -5 -5 1025.2 1025.0
06 13.12 Ю 3 <100 м слабый дождь {туман} ?/? +2.4 +2.4 100 -2 -2 1022.7 1049.2 -0.4 1
09 13.12 СВ 4 <100 м слабый дождь {туман} ?/? -0.4 -0.4 100 -6 -6 1024.3 1024.0
12 13.12 В 3 <100 м слабый дождь {туман} ?/? +1.2 +1.2 100 -4 -4 1025.0 877.0 8
18 13.12 С 5 <100 м туман ?/? -1.4 -1.4 100 -8 -8 1026.1 1026.0 +4.1 4
21 13.12 С 4 <100 м туман ?/? -2.2 -2.2 100 -8 -8 1027.2 1027.0
00 14.12 С 4 <100 м [диам. гололёда 40 мм] ?/? -0.5 -0.5 100 -6 -6 1027.8 1028.0 1
03 14.12 В 3 <100 м туман {дождь} ?/? 0.0 0.0 100 -5 -5 1029.2 1029.0
06 14.12 С 3 <100 м [диам. гололёда 28 мм] ?/? +0.1 +0.1 100 -5 -5 1026.5 1027.0 -2.5
09 14.12 С 2 <100 м туман {дождь} ?/? -0.7 -0.7 100 -5 -5 1026.7 1027.0
12 14.12 В 5 <100 м туман {дождь} [диам. гололёда 28 мм] ?/? +0.1 +0.1 100 -6 -6 1026.5 1027.0 0.1
18 14.12 С 5 <100 м туман ?/? -1.3 -1.3 100 -8 -8 1027.1 1027.0 +0.5 3
21 14.12 С 4 <100 м туман ?/? -2.2 -2.2 100 -8 -8 1027.7 1028.0
00 15.12 С 3 <100 м слабый переохл. дождь (гололёд) [диам. гололёда 38 мм] ?/? -1.8 -1.8 100 -7 -7 1029.2 879.7 3
03 15.12 С 3 <100 м слабый переохл. дождь (гололёд) {туман} ?/? -2.2 -2.2 100 -8 -8 1030.9 1031.0
06 15.12 С 3 <100 м переохл. туман {дождь} [диам. гололёда 45 мм] ?/? -2.1 -2.1 100 -7 -7 1029.0 879.1 -2.5 0.5
09 15.12 С 3 <100 м переохл. туман ?/? -2.5 -2.5 100 -8 -8 1029.9 1030.0
12 15.12 СЗ 2 <100 м переохл. туман 10/10
[]
-2.9 -2.9 100 -7 -7 1031.6 1032.0

 

Местоположение метеостанции Nanyue (Китай): широта 27.30 долгота 112.70 высота над уровнем моря 1268 м.

В архиве по умолчанию представлена погода в Nanyue за последнюю неделю. Архивные данные за месяц целиком и за предыдущие месяцы, начиная с января 2011 года, Вы можете получить, выбрав интересующий диапазон дат из раскрывающегося списка и нажав кнопку "Ввод!".

Внимание! Время в таблицах - всемирное. Для получения местного времени необходимо прибавить поправку, которая в Nanyue равна 8 ч.

Смотрите также архив погоды в соседних городах и на ближайших метеорологических станциях:

Погода в Changsha (Китай) (105 км)
Погода в Shaoyang (Китай) (123 км)
Погода в Lingling (Китай) (161 км)
Погода в Chenzhou (Китай) (170 км)
Погода в Yichun (Китай) (175 км)
Погода в Wugang (Китай) (215 км)
Погода в Changde (Китай) (219 км)
Погода в Jian (Китай) (224 км)
Погода в Yueyang (Китай) (234 км)
Погода в Yuanling (Китай) (261 км)

Пояснения к столбцам:

Ветер - указаны скорость ветра в м/с - средняя за 10 мин, порывы в срок и между сроками (в фигурных скобках) и направление, откуда дует ветер: С - северный, СВ - северо-восточный, В - восточный, ЮВ - юго-восточный, Ю - южный, ЮЗ - юго-западный, З - западный, СЗ - северо-западный.
Видимость - горизонтальная дальность видимости в метрах или километрах. При видимости от 1 до 10 км при отсутствии осадков обычно наблюдается дымка, при ухудшении видимости до 1 км и менее - туман. В сухую погоду видимость может ухудшаться дымом, пылью или мглою.
Явления - указаны атмосферные явления, наблюдавшиеся в срок или в последний час перед сроком; фигурными скобками обозначены явления, наблюдавшиеся между сроками (за 1-3 часа до срока); квадратными скобками обозначены град или гололедные отложения с указанием их диаметра в мм.
Облачность - указаны через наклонную черту общая и нижняя облачность в баллах и высота нижней границы облаков в метрах; квадратными скобками обозначены формы облаков: Ci - перистые, Cs - перисто-слоистые, Cc - перисто-кучевые, Ac - высококучевые, As - высокослоистые, Sc - слоисто-кучевые, Ns - слоисто-дождевые, Cu - кучевые, Cb - кучево-дождевые. Подробнее классификацию облаков см. в Атласе облаков (PDF).
T - Температура воздуха - температура, измеренная на высоте 2 м над землей.
Td - Температура точки росы - температура, при понижении до которой содержащийся в воздухе водяной пар достигнет насыщения.
f - Относительная влажность воздуха - влажноcть воздуха, измеренная на высоте 2 м над землей.
Te - Эффективная температура - температура, которую ощущает одетый по сезону человек в тени. Характеристика душности погоды. При расчете учитывается влияние влажности воздуха и скорости ветра на теплоощущения человека.
Tes - Эффективная температура на солнце - температура, которую ощущает человек, с поправкой на солнечный нагрев. Характеристика знойности погоды. Зависит от высоты солнца над горизонтом, облачности и скорости ветра. Ночью, в пасмурную погоду, а также при ветре 12 м/с и более поправка равна нулю.
P - Атмосферное давление - приведенное к уровню моря атмосферное давление.
Po - Атмосферное давление - измеренное на уровне метеостанции атмосферное давление.
Tmin - Минимальная температура - минимум температуры воздуха на высоте 2 м над землей.
Tmax - Максимальная температура - максимум температуры воздуха на высоте 2 м над землей.
R - Количество осадков - Количество выпавших осадков за период времени, мм. При наведении курсора мыши на число - период времени, за который выпало указанное количество осадков.
R24 - Количество осадков - Количество выпавших осадков за 24 часа, мм.
S - Снежный покров - Высота снежного покрова, см. При наведении курсора мыши на число - состояние снежного покрова и степень покрытия местности в баллах.